Date,TemperatureHighF,TemperatureAvgF,TemperatureLowF,DewpointHighF,DewpointAvgF,DewpointLowF,HumidityHigh,HumidityAvg,HumidityLow,PressureMaxIn,PressureMinIn,WindSpeedMaxMPH,WindSpeedAvgMPH,GustSpeedMaxMPH,PrecipitationSumIn
2013-11-1,74,69,64,68,66,63,98,90,78,29.92,29.67,12,6,18,0.89
2013-11-2,70,63,56,63,53,44,97,73,45,29.90,29.67,10,4,13,0.01
2013-11-3,62,54,45,44,40,38,75,62,44,30.35,29.90,8,4,13,0.00
2013-11-4,55,46,40,40,36,33,80,67,44,30.53,30.34,8,4,12,0.00
2013-11-5,58,50,41,50,44,36,89,81,72,30.51,30.41,7,4,11,0.00
2013-11-6,70,59,48,59,54,47,98,85,65,30.41,30.10,3,1,5,0.00
2013-11-7,69,61,47,64,56,36,99,84,54,30.10,29.90,8,3,14,0.13
2013-11-8,57,47,39,36,32,28,82,56,34,30.32,30.07,8,3,13,0.00
2013-11-9,60,48,36,42,35,30,82,63,40,30.37,30.18,8,2,9,0.00
2013-11-10,72,55,42,44,39,31,83,57,28,30.21,30.05,7,3,10,0.00
2013-11-11,60,48,38,39,33,30,80,56,36,30.34,30.13,5,1,8,0.00
2013-11-12,62,45,34,42,34,21,90,69,42,30.40,30.05,12,4,18,0.02
2013-11-13,45,36,29,27,21,18,85,57,36,30.52,30.40,7,3,11,0.00
2013-11-14,57,41,27,29,25,22,85,55,29,30.48,30.34,7,2,11,0.00
2013-11-15,63,49,33,50,39,24,86,70,46,30.36,30.20,5,1,7,0.00
2013-11-16,70,59,52,61,55,48,99,88,72,30.25,30.18,4,1,5,0.00
2013-11-17,72,63,55,67,60,54,99,91,71,30.20,29.89,9,2,11,0.11
2013-11-18,75,67,56,68,56,33,98,69,38,29.92,29.77,10,4,18,0.03
2013-11-19,56,50,42,33,31,29,65,49,37,30.30,29.92,8,4,15,0.00
2013-11-20,53,45,38,40,34,30,84,67,55,30.42,30.29,9,5,15,0.00
2013-11-21,63,52,44,53,46,39,89,81,69,30.47,30.36,8,2,10,0.00
2013-11-22,70,61,50,63,57,48,100,87,75,30.37,30.07,7,2,9,0.00
2013-11-23,62,57,44,61,47,24,98,72,42,30.15,30.01,8,3,13,0.01
2013-11-24,44,34,27,25,13,5,58,42,27,30.54,30.15,10,5,14,0.00
2013-11-25,42,32,22,22,15,9,69,50,27,30.60,30.38,5,1,7,0.00
2013-11-26,67,48,36,66,42,19,100,80,49,30.38,29.55,12,5,16,0.80
2013-11-27,67,43,31,66,40,20,100,88,60,30.16,29.47,12,6,18,0.88
2013-11-28,45,34,25,26,21,17,79,60,41,30.49,30.16,9,3,13,0.00
2013-11-29,52,39,28,32,27,24,87,64,44,30.62,30.48,8,2,13,0.00
2013-11-30,49,39,30,36,31,25,85,75,59,30.62,30.36,5,3,8,0.00